Weather History for Savannah, GA

Change the Weather History Date:

Monday, December 16, 2013

  Actual Average Record
Temperature  
Mean Temperature 48 °F 51 °F  
Max Temperature 62 °F 62 °F 82 °F (1971)
Min Temperature 34 °F 41 °F 19 °F (1968)
Degree Days  
Heating Degree Days 17 14  
Month to date heating degree days 121 197  
Since 1 July heating degree days 377 464  
Cooling Degree Days 0 0  
Month to date cooling degree days 20 3  
Year to date cooling degree days 2473 2452  
Moisture  
Dew Point 35 °F    
Average Humidity 64    
Maximum Humidity 89    
Minimum Humidity 39    
Precipitation  
Precipitation 0.00 in 0.09 in 1.53 in (1880)
Month to date precipitation 1.26 1.45  
Year to date precipitation 52.95 46.46  
Sea Level Pressure  
Sea Level Pressure 30.22 in    
Wind  
Wind Speed 4 mph (NW)    
Max Wind Speed 9 mph    
Max Gust Speed 25 mph    
Visibility 10 miles    
Events      
T = Trace of Precipitation, MM = Missing Value Source: NWS Daily Summary

Daily Weather History Graph

Daily Weather History Graph

Search for Another Location

Airport:

Trip Planner

Search our weather history database for the weather conditions in past years. The results will help you decide how hot, cold, wet, or windy it might be!

Date:

Astronomy

Dec. 16, 2013 Rise Set
Actual Time 7:18 AM EST 5:22 PM EST
Civil Twilight 6:51 AM EST 5:49 PM EST
Nautical Twilight 6:21 AM EST 6:19 PM EST
Astronomical Twilight 5:51 AM EST 6:49 PM EST
Moon 5:08 PM EST (12/16) 6:29 AM EST (12/16)
Length of Visible Light 10h 57m
Length of Day
10h 03m
Full, 100% of the Moon is Illuminated
Dec 16
Full
Dec 17
Full
Dec 25
Last Quarter
Jan 1
New
Jan 7
First Quarter

Hourly Weather History & Observations

Time (EST) Temp. Windchill Dew Point Humidity Pressure Visibility Wind Dir Wind Speed Gust Speed Precip Events Conditions
12:53 AM 41.0 °F 35.8 °F 34.0 °F 76% 30.18 in 10.0 mi NW 8.1 mph - N/A   Clear
1:53 AM 39.0 °F 35.7 °F 33.1 °F 79% 30.18 in 10.0 mi WNW 4.6 mph - N/A   Clear
2:53 AM 37.9 °F 34.4 °F 33.1 °F 83% 30.18 in 10.0 mi WNW 4.6 mph - N/A   Clear
3:53 AM 37.0 °F 31.0 °F 33.1 °F 86% 30.19 in 10.0 mi WNW 8.1 mph - N/A   Clear
4:53 AM 36.0 °F 29.6 °F 32.0 °F 86% 30.19 in 10.0 mi NW 8.1 mph - N/A   Clear
5:53 AM 36.0 °F 31.1 °F 30.9 °F 82% 30.19 in 10.0 mi WNW 5.8 mph - N/A   Clear
6:53 AM 35.1 °F 30.1 °F 30.9 °F 85% 30.21 in 10.0 mi NW 5.8 mph - N/A   Clear
7:53 AM 35.1 °F 30.1 °F 30.9 °F 85% 30.24 in 9.0 mi NW 5.8 mph - N/A   Clear
8:53 AM 39.0 °F - 32.0 °F 76% 30.26 in 10.0 mi Calm Calm - N/A   Clear
9:53 AM 45.0 °F 43.5 °F 33.1 °F 63% 30.26 in 10.0 mi NNW 3.5 mph - N/A   Clear
10:53 AM 50.0 °F - 34.0 °F 54% 30.25 in 10.0 mi NNW 3.5 mph - N/A   Clear
11:53 AM 55.0 °F - 36.0 °F 49% 30.23 in 10.0 mi Calm Calm - N/A   Clear
12:53 PM 57.9 °F - 36.0 °F 44% 30.21 in 10.0 mi NW 5.8 mph - N/A   Clear
1:53 PM 60.1 °F - 35.1 °F 39% 30.19 in 10.0 mi Variable 3.5 mph - N/A   Clear
2:53 PM 61.0 °F - 36.0 °F 39% 30.19 in 10.0 mi West 6.9 mph - N/A   Clear
3:53 PM 61.0 °F - 37.0 °F 41% 30.20 in 10.0 mi WNW 6.9 mph - N/A   Clear
4:53 PM 59.0 °F - 37.0 °F 44% 30.21 in 10.0 mi NW 5.8 mph - N/A   Clear
5:53 PM 54.0 °F - 37.9 °F 55% 30.22 in 10.0 mi Calm Calm - N/A   Clear
6:53 PM 46.9 °F - 39.9 °F 77% 30.24 in 10.0 mi Calm Calm - N/A   Clear
7:53 PM 45.0 °F - 39.9 °F 82% 30.24 in 10.0 mi Calm Calm - N/A   Clear
8:53 PM 46.0 °F - 39.9 °F 79% 30.25 in 10.0 mi Calm Calm - N/A   Clear
9:53 PM 43.0 °F - 39.0 °F 86% 30.25 in 10.0 mi Calm Calm - N/A   Clear
10:53 PM 43.0 °F - 37.0 °F 80% 30.25 in 10.0 mi Calm Calm - N/A   Clear
11:53 PM 39.9 °F - 36.0 °F 86% 30.25 in 10.0 mi Calm Calm - N/A   Clear